Vertical_Velocity
-0 0 4 5 2 4 -0 -5 0 1 1 6 4 -2 16 20 3 -2 -3 -4 -3 -2
-1 2 2 5 -3 -0 -4 -7 -9 -3 -6 -2 -6 -3 -7 2 17 21 4 -1 -0 0
0 -3 -4 -3 -8 3 -3 -6 -3 -3 -0 -1 -2 -4 2 0 -0 1 4 -2 2 3
1 3 -1 3 2 -1 -4 -2 -2 -2 -4 -4 -1 1 -0 0 1 11 4 0 1 -2
-5 -3 0 -2 -3 -1 -1 1 4 3 2 1 0 0 -2 -2 -3 -4 3 -4 -0 -2
-2 -2 -1 -2 -1 -1 -2 1 1 4 2 1 -1 -1 -4 -2 -1 -4 -5 1 2 -2
-2 -1 -1 -3 1 4 -1 -3 -3 -2 -1 1 3 2 -0 -1 -2 -1 -1 -2 -2 5
-2 1 0 2 -1 -0 1 0 2 5 -0 -1 1 2 3 1 -0 -1 -1 1 1 -0
-1 0 -0 0 -0 1 6 -1 -1 -2 -1 0 1 2 6 2 2 1 1 2 -0 -0
-1 1 -1 0 -0 1 -1 1 -2 -0 1 -1 -1 3 2 1 2 1 -1 -0 -2 1
1 2 -4 -0 -1 1 2 -2 -1 0 -1 -2 -0 1 1 1 -1 -1 -1 0 -0 -1
1 2 -4 0 -1 3 1 -1 2 -1 -2 -2 2 2 1 0 -0 -0 -0 0 -0 1
2 -0 -0 -0 5 2 -1 -0 2 2 3 1 -0 -0 3 -0 -1 -1 5 8 1 -1
1 -1 0 1 -1 1 1 1 -1 0 -1 -1 -0 3 -3 0 -3 -2 7 -0 1 11
Height
1487 1483 1479 1475 1471 1467 1463 1460 1458 1456 1455 1454 1455 1456 1457 1460 1462 1467 1471 1475 1480 1485
1480 1475 1471 1466 1460 1457 1453 1450 1447 1445 1442 1441 1443 1445 1448 1451 1454 1459 1463 1468 1473 1478
1473 1468 1462 1457 1451 1448 1443 1439 1436 1433 1430 1429 1428 1432 1437 1442 1445 1449 1453 1459 1465 1472
1464 1458 1453 1448 1443 1438 1435 1432 1430 1428 1426 1424 1422 1422 1427 1432 1438 1442 1446 1452 1459 1465
1456 1451 1446 1441 1437 1434 1430 1428 1425 1422 1421 1419 1418 1418 1420 1423 1428 1433 1438 1444 1452 1459
1453 1447 1442 1438 1434 1431 1427 1423 1420 1417 1415 1414 1413 1414 1415 1418 1421 1425 1429 1436 1444 1453
1450 1445 1441 1437 1432 1428 1424 1419 1415 1411 1408 1406 1406 1408 1410 1413 1416 1419 1423 1429 1437 1443
1449 1445 1440 1435 1430 1426 1421 1416 1411 1406 1403 1400 1399 1401 1404 1407 1412 1416 1420 1426 1433 1440
1448 1444 1439 1434 1429 1424 1419 1414 1408 1403 1399 1395 1393 1395 1400 1404 1409 1414 1418 1423 1429 1435
1448 1443 1439 1434 1429 1424 1419 1414 1409 1404 1399 1396 1394 1396 1399 1403 1408 1412 1417 1423 1428 1434
1449 1444 1441 1435 1430 1426 1421 1416 1412 1407 1404 1402 1401 1401 1403 1406 1409 1413 1418 1423 1428 1433
1450 1446 1442 1437 1432 1428 1424 1420 1416 1413 1411 1408 1407 1408 1409 1410 1413 1416 1419 1423 1429 1434
1453 1448 1444 1439 1435 1431 1428 1425 1422 1420 1418 1416 1414 1414 1414 1415 1417 1419 1422 1426 1432 1436
1456 1451 1446 1443 1439 1435 1432 1430 1429 1426 1424 1422 1419 1419 1419 1420 1422 1424 1427 1431 1436 1442